STARLINK-35292

Last updated on Sun Dec 07 2025 00:02:05 GMT+0000 (Coordinated Universal Time)

1 66322U 25253D 25340.46978736 .00087611 00000+0 20782-2 0 9993 2 66322 43.0008 21.9195 0001348 250.9485 109.1225 15.40734083 5956
UTC large
Height (km)
Speed (km/s)
/
Latitude / Longitude
Inclination (degrees)
Orbital Period (minutes)
Azimuth
Elevation
Range (km)
Doppler Factor

Next 0 passes for location: London (51.5072 / 0.1276)

Sorry there are no passes over London.